Weather History for KSLB - October, 2013

Change the Weather History Date:

Wednesday, October 16, 2013

  Actual Average Record
Temperature  
Mean Temperature 43 °F -  
Max Temperature 51 °F 62 °F 78 °F (1996)
Min Temperature 35 °F 40 °F 30 °F (2004)
Degree Days  
Heating Degree Days 22    
Moisture  
Dew Point 36 °F    
Average Humidity 75    
Maximum Humidity 100    
Minimum Humidity 41    
Precipitation  
Precipitation 0.00 in - - ()
Sea Level Pressure  
Sea Level Pressure 29.96 in    
Wind  
Wind Speed 11 mph (WNW)    
Max Wind Speed 15 mph    
Max Gust Speed 22 mph    
Visibility 9 miles    
Events      
Averages and records for this station are not official NWS values.
T = Trace of Precipitation, MM = Missing Value Source: NWS Daily Summary

Daily Weather History Graph

Daily Weather History Graph

Search for Another Location

Airport or City:

Trip Planner

Search our weather history database for the weather conditions in past years. The results will help you decide how hot, cold, wet, or windy it might be!

Date:

Astronomy

Oct. 16, 2013 Rise Set
Actual Time 7:35 AM CDT 6:36 PM CDT
Civil Twilight 7:07 AM CDT 7:05 PM CDT
Nautical Twilight 6:34 AM CDT 7:37 PM CDT
Astronomical Twilight 6:01 AM CDT 8:10 PM CDT
Moon 5:18 PM CDT (10/16) 5:01 AM CDT (10/16)
Length of Visible Light 11h 58m
Length of Day
11h 01m
Waxing Gibbous, 94% of the Moon is Illuminated
Oct 16
Waxing Gibbous
Oct 18
Full
Oct 26
Last Quarter
Nov 3
New
Nov 9
First Quarter

Hourly Weather History & Observations

Time (CDT) Temp. Windchill Dew Point Humidity Pressure Visibility Wind Dir Wind Speed Gust Speed Precip Events Conditions
12:15 AM 42.8 °F 35.8 °F 41.0 °F 93% 29.95 in 10.0 mi NW 13.8 mph 20.7 mph N/A   Overcast
12:35 AM 42.8 °F 35.8 °F 41.0 °F 93% 29.94 in 10.0 mi WNW 13.8 mph - N/A   Overcast
12:55 AM 42.8 °F 35.4 °F 41.0 °F 93% 29.94 in 10.0 mi WNW 15.0 mph - N/A   Overcast
1:15 AM 42.8 °F 36.2 °F 41.0 °F 93% 29.95 in 10.0 mi NW 12.7 mph 20.7 mph N/A   Overcast
1:35 AM 42.8 °F 35.8 °F 41.0 °F 93% 29.95 in 10.0 mi NW 13.8 mph 20.7 mph N/A   Overcast
1:55 AM 42.8 °F 35.8 °F 41.0 °F 93% 29.96 in 9.0 mi NW 13.8 mph 20.7 mph N/A   Overcast
2:15 AM 42.8 °F 36.6 °F 41.0 °F 93% 29.95 in 3.0 mi NW 11.5 mph 21.9 mph N/A   Light Drizzle
2:35 AM 42.8 °F 36.2 °F 41.0 °F 93% 29.95 in 7.0 mi NW 12.7 mph 18.4 mph N/A   Light Drizzle
2:55 AM 42.8 °F 35.4 °F 41.0 °F 93% 29.95 in 4.0 mi NW 15.0 mph - N/A   Overcast
3:15 AM 42.8 °F 35.8 °F 42.8 °F 100% 29.95 in 3.0 mi NW 13.8 mph - N/A   Light Drizzle
3:35 AM 42.8 °F 36.2 °F 42.8 °F 100% 29.95 in 4.0 mi NW 12.7 mph 18.4 mph N/A   Light Drizzle
3:55 AM 42.8 °F 35.8 °F 42.8 °F 100% 29.95 in 3.0 mi NW 13.8 mph - N/A   Light Drizzle
4:15 AM 42.8 °F 36.2 °F 42.8 °F 100% 29.96 in 3.0 mi NW 12.7 mph - N/A   Light Drizzle
4:35 AM 42.8 °F 36.6 °F 42.8 °F 100% 29.96 in 6.0 mi NW 11.5 mph - N/A   Light Drizzle
4:55 AM 42.8 °F 37.5 °F 42.8 °F 100% 29.96 in 3.0 mi WNW 9.2 mph - N/A   Light Drizzle
5:15 AM 42.8 °F 37.0 °F 42.8 °F 100% 29.97 in 6.0 mi NW 10.4 mph - N/A   Light Drizzle
5:35 AM 42.8 °F 36.2 °F 41.0 °F 93% 29.97 in 8.0 mi NW 12.7 mph - N/A   Light Drizzle
5:55 AM 42.8 °F 36.6 °F 41.0 °F 93% 29.97 in 6.0 mi NW 11.5 mph - N/A   Light Drizzle
6:15 AM 42.8 °F 36.2 °F 41.0 °F 93% 29.97 in 5.0 mi NW 12.7 mph - N/A   Light Drizzle
6:35 AM 42.8 °F 37.0 °F 41.0 °F 93% 29.98 in 9.0 mi NW 10.4 mph 16.1 mph N/A   Overcast
6:55 AM 42.8 °F 36.6 °F 41.0 °F 93% 29.98 in 10.0 mi NW 11.5 mph 17.3 mph N/A   Overcast
7:15 AM 42.8 °F 37.5 °F 41.0 °F 93% 29.98 in 10.0 mi NW 9.2 mph - N/A   Overcast
7:35 AM 42.8 °F 37.0 °F 41.0 °F 93% 29.97 in 10.0 mi NW 10.4 mph - N/A   Overcast
7:55 AM 42.8 °F 37.5 °F 41.0 °F 93% 29.98 in 10.0 mi NW 9.2 mph 17.3 mph N/A   Overcast
8:15 AM 42.8 °F 36.2 °F 41.0 °F 93% 29.98 in 10.0 mi NW 12.7 mph - N/A   Overcast
8:35 AM 42.8 °F 36.2 °F 41.0 °F 93% 29.99 in 10.0 mi NW 12.7 mph - N/A   Overcast
8:55 AM 42.8 °F 37.0 °F 41.0 °F 93% 29.99 in 10.0 mi NW 10.4 mph - N/A   Overcast
9:15 AM 42.8 °F 36.6 °F 39.2 °F 87% 30.00 in 10.0 mi NW 11.5 mph 18.4 mph N/A   Overcast
9:35 AM 42.8 °F 35.8 °F 39.2 °F 87% 30.00 in 10.0 mi NW 13.8 mph - N/A   Overcast
9:55 AM 44.6 °F 37.8 °F 39.2 °F 81% 30.00 in 10.0 mi NW 15.0 mph - N/A   Overcast
10:15 AM 44.6 °F 38.8 °F 39.2 °F 81% 30.00 in 10.0 mi NW 11.5 mph - N/A   Overcast
10:35 AM 44.6 °F 39.2 °F 39.2 °F 81% 30.01 in 10.0 mi NW 10.4 mph - N/A   Overcast
10:55 AM 44.6 °F 38.1 °F 37.4 °F 76% 30.01 in 10.0 mi NNW 13.8 mph - N/A   Overcast
11:15 AM 44.6 °F 39.7 °F 37.4 °F 76% 30.01 in 10.0 mi NW 9.2 mph 16.1 mph N/A   Overcast
11:35 AM 46.4 °F 41.9 °F 37.4 °F 71% 30.01 in 10.0 mi NNW 9.2 mph - N/A   Overcast
11:55 AM 44.6 °F 38.8 °F 37.4 °F 76% 30.01 in 10.0 mi NW 11.5 mph - N/A   Overcast
12:15 PM 46.4 °F 41.5 °F 35.6 °F 66% 30.01 in 10.0 mi NW 10.4 mph 16.1 mph N/A   Overcast
12:35 PM 46.4 °F 42.4 °F 35.6 °F 66% 30.01 in 10.0 mi NNW 8.1 mph - N/A   Overcast
12:55 PM 48.2 °F - 35.6 °F 62% 30.00 in 10.0 mi NNW 10.4 mph - N/A   Overcast
1:15 PM 48.2 °F - 35.6 °F 62% 29.99 in 10.0 mi NNW 9.2 mph 15.0 mph N/A   Mostly Cloudy
1:35 PM 48.2 °F - 35.6 °F 62% 29.99 in 10.0 mi NW 12.7 mph - N/A   Mostly Cloudy
1:55 PM 50.0 °F - 35.6 °F 58% 29.98 in 10.0 mi WNW 11.5 mph 18.4 mph N/A   Scattered Clouds
2:15 PM 50.0 °F - 33.8 °F 54% 29.97 in 10.0 mi NNW 11.5 mph 17.3 mph N/A   Partly Cloudy
2:35 PM 50.0 °F - 32.0 °F 50% 29.97 in 10.0 mi NW 10.4 mph 19.6 mph N/A   Clear
2:55 PM 51.8 °F - 32.0 °F 47% 29.96 in 10.0 mi WNW 10.4 mph 17.3 mph N/A   Clear
3:15 PM 51.8 °F - 30.2 °F 44% 29.96 in 10.0 mi West 10.4 mph 17.3 mph N/A   Clear
3:35 PM 51.8 °F - 28.4 °F 41% 29.95 in 10.0 mi WNW 9.2 mph 15.0 mph N/A   Clear
3:55 PM 51.8 °F - 28.4 °F 41% 29.95 in 10.0 mi WNW 8.1 mph 15.0 mph N/A   Clear
4:15 PM 51.8 °F - 28.4 °F 41% 29.94 in 10.0 mi WNW 8.1 mph 16.1 mph N/A   Clear
4:35 PM 51.8 °F - 28.4 °F 41% 29.94 in 10.0 mi WNW 9.2 mph 16.1 mph N/A   Clear
4:55 PM 51.8 °F - 28.4 °F 41% 29.94 in 10.0 mi WNW 10.4 mph - N/A   Clear
5:15 PM 51.8 °F - 30.2 °F 44% 29.94 in 10.0 mi West 9.2 mph - N/A   Clear
5:35 PM 51.8 °F - 30.2 °F 44% 29.93 in 10.0 mi WNW 11.5 mph - N/A   Clear
5:55 PM 50.0 °F - 30.2 °F 47% 29.93 in 10.0 mi West 9.2 mph - N/A   Clear
6:15 PM 48.2 °F - 32.0 °F 54% 29.93 in 10.0 mi WNW 6.9 mph - N/A   Clear
6:35 PM 46.4 °F 44.3 °F 33.8 °F 62% 29.93 in 10.0 mi WNW 4.6 mph - N/A   Clear
6:55 PM 46.4 °F 44.3 °F 32.0 °F 57% 29.93 in 10.0 mi West 4.6 mph - N/A   Clear
7:15 PM 46.4 °F 44.3 °F 32.0 °F 57% 29.93 in 10.0 mi West 4.6 mph - N/A   Clear
7:35 PM 44.6 °F 41.4 °F 32.0 °F 61% 29.93 in 10.0 mi West 5.8 mph - N/A   Clear
7:55 PM 44.6 °F 42.2 °F 32.0 °F 61% 29.94 in - WNW 4.6 mph - N/A   Clear
8:15 PM 44.6 °F 42.2 °F 32.0 °F 61% 29.94 in 10.0 mi West 4.6 mph - N/A   Clear
8:35 PM 42.8 °F 40.1 °F 32.0 °F 66% 29.94 in 10.0 mi West 4.6 mph - N/A   Clear
8:55 PM 42.8 °F 40.1 °F 32.0 °F 66% 29.94 in 10.0 mi WSW 4.6 mph - N/A   Clear
9:15 PM 42.8 °F 39.3 °F 32.0 °F 66% 29.93 in 10.0 mi WSW 5.8 mph - N/A   Clear
9:35 PM 41.0 °F 37.1 °F 32.0 °F 70% 29.93 in 10.0 mi SW 5.8 mph - N/A   Clear
9:55 PM 41.0 °F 37.1 °F 32.0 °F 70% 29.94 in 10.0 mi SW 5.8 mph - N/A   Clear
10:15 PM 37.4 °F 32.1 °F 32.0 °F 81% 29.94 in 10.0 mi SSW 6.9 mph - N/A   Clear
10:35 PM 37.4 °F 34.9 °F 32.0 °F 81% 29.93 in 10.0 mi SSW 3.5 mph - N/A   Clear
10:55 PM 35.6 °F 31.7 °F 30.2 °F 81% 29.93 in 10.0 mi SSW 4.6 mph - N/A   Clear
11:15 PM 37.4 °F 32.8 °F 32.0 °F 81% 29.93 in 10.0 mi SW 5.8 mph - N/A   Clear
11:35 PM 39.2 °F 35.0 °F 32.0 °F 75% 29.93 in 10.0 mi SW 5.8 mph - N/A   Clear
11:55 PM 39.2 °F 34.2 °F 32.0 °F 75% 29.92 in 10.0 mi SW 6.9 mph - N/A   Clear